Fairbanks, AK

12:19 AM AKDT on October 14, 2019 (GMT -0800)
Fairbanks International

Weather History for PAFA - May, 2019

Change the Weather History Date:

Wednesday, May 15, 2019

  Actual Average Record
Temperature  
Mean Temperature 58 °F 49 °F  
Max Temperature 75 °F 61 °F 81 °F (1915)
Min Temperature 40 °F 38 °F 23 °F (1937)
Degree Days  
Heating Degree Days 7 16  
Month to date heating degree days 246 284  
Since 1 July heating degree days 11508 13308  
Cooling Degree Days 0 0  
Month to date cooling degree days 0 0  
Year to date cooling degree days 0 0  
Growing Degree Days 7 (Base 50)    
Moisture  
Dew Point 33 °F    
Average Humidity 43    
Maximum Humidity 86    
Minimum Humidity 11    
Precipitation  
Precipitation T in 0.02 in 0.45 in (2005)
Month to date precipitation 0.22 0.25  
Year to date precipitation 2.70 1.81  
Snow  
Snow 0.00 in 0.10 in 2.00 in (1918)
Month to date snowfall T 0.7  
Since 1 July snowfall 57.5 64.8  
Snow Depth 0.00 in    
Sea Level Pressure  
Sea Level Pressure 29.73 in    
Wind  
Wind Speed 4 mph (NE)    
Max Wind Speed 26 mph    
Max Gust Speed 36 mph    
Visibility 10 miles    
Events Rain    
T = Trace of Precipitation, MM = Missing Value Source: NWS Daily Summary

Daily Weather History Graph

Daily Weather History Graph

Search for Another Location

Airport or City:

Astronomy

May. 15, 2019 Rise Set
Actual Time 4:28 AM AKDT 11:09 PM AKDT
Civil Twilight 2:27 AM AKDT 1:24 AM AKDT
Nautical Twilight Sun does not rise Sun does not rise
Astronomical Twilight Sun does not rise Sun does not rise
Moon 5:56 PM AKDT (5/15) 5:08 AM AKDT (5/15)
Length of Visible Light 22h 57m
Length of Day
18h 40m
Waxing Gibbous, 88% of the Moon is Illuminated
May 15
Waxing Gibbous
May 18
Full
May 26
Last Quarter
Jun 3
New
Jun 9
First Quarter

Hourly Weather History & Observations

Time (AKDT) Temp. Windchill Dew Point Humidity Pressure Visibility Wind Dir Wind Speed Gust Speed Precip Events Conditions
12:53 AM 46.9 °F - 39.0 °F 74% 29.80 in 10.0 mi Calm Calm - N/A   Mostly Cloudy
1:53 AM 43.0 °F - 39.0 °F 86% 29.81 in 10.0 mi Calm Calm - N/A   Mostly Cloudy
2:53 AM 44.1 °F 42.5 °F 37.9 °F 79% 29.80 in 10.0 mi West 3.5 mph - N/A   Mostly Cloudy
3:53 AM 43.0 °F - 37.9 °F 82% 29.81 in 10.0 mi Calm Calm - N/A   Mostly Cloudy
4:53 AM 42.1 °F - 34.0 °F 73% 29.82 in 10.0 mi Calm Calm - N/A   Mostly Cloudy
5:53 AM 41.0 °F 38.0 °F 35.1 °F 79% 29.81 in 10.0 mi NNE 4.6 mph - N/A   Mostly Cloudy
6:53 AM 43.0 °F - 36.0 °F 76% 29.81 in 10.0 mi Calm Calm - N/A   Mostly Cloudy
7:53 AM 46.0 °F 43.9 °F 34.0 °F 63% 29.81 in 10.0 mi NE 4.6 mph - N/A   Mostly Cloudy
8:53 AM 51.1 °F - 35.1 °F 54% 29.80 in 10.0 mi East 4.6 mph - N/A   Mostly Cloudy
9:53 AM 55.9 °F - 33.1 °F 42% 29.79 in 10.0 mi Variable 5.8 mph - N/A   Mostly Cloudy
10:53 AM 59.0 °F - 34.0 °F 39% 29.79 in 10.0 mi ENE 3.5 mph - N/A   Mostly Cloudy
11:53 AM 63.0 °F - 34.0 °F 34% 29.77 in 10.0 mi Calm Calm - N/A   Mostly Cloudy
12:53 PM 66.9 °F - 32.0 °F 27% 29.75 in 10.0 mi East 8.1 mph - N/A   Mostly Cloudy
1:53 PM 70.0 °F - 32.0 °F 25% 29.73 in 10.0 mi East 6.9 mph - N/A   Mostly Cloudy
2:53 PM 72.0 °F - 30.9 °F 22% 29.71 in 10.0 mi ENE 9.2 mph 19.6 mph N/A   Mostly Cloudy
3:53 PM 73.9 °F - 30.9 °F 21% 29.68 in 10.0 mi Variable 3.5 mph - N/A   Scattered Clouds
4:53 PM 75.0 °F - 28.9 °F 18% 29.67 in 10.0 mi Variable 3.5 mph - N/A   Mostly Cloudy
5:53 PM 73.9 °F - 33.1 °F 22% 29.66 in 10.0 mi NNE 11.5 mph - N/A   Mostly Cloudy
6:31 PM 71.1 °F - 32.0 °F 24% 29.63 in 10.0 mi East 24.2 mph 35.7 mph 0.00 in Rain Light Rain
6:33 PM 71.1 °F - 32.0 °F 24% 29.65 in 6.0 mi ENE 26.5 mph 35.7 mph 0.00 in Rain Light Rain
7:53 PM 70.0 °F - 33.1 °F 26% 29.65 in 10.0 mi NNE 8.1 mph - N/A   Mostly Cloudy
8:53 PM 64.0 °F - 33.1 °F 31% 29.64 in 10.0 mi North 8.1 mph - N/A   Mostly Cloudy
9:53 PM 66.0 °F - 32.0 °F 28% 29.64 in 10.0 mi NE 11.5 mph - N/A   Mostly Cloudy
10:53 PM 63.0 °F - 30.0 °F 29% 29.64 in 10.0 mi NNE 10.4 mph - N/A   Mostly Cloudy
11:53 PM 60.1 °F - 28.0 °F 30% 29.64 in 10.0 mi North 10.4 mph - N/A   Mostly Cloudy